This demonstration page uses our WeatherBlox Daily Observations layout. Learn more.

Left ArrowRight Arrow

Hourly Observations for November 3, 2015

Temp ( °F °C ) Dew Point ( °F °C ) Humidity (%) Winds ( mph kmh ) Pressure ( in mb ) Visibility ( mi km ) Precip ( " mm )
12:51 am 00:51 Clear 54 12.2 43 6.1 67 67 E 6 9 29.76 1008 10 16.0934 N/A
1:51 am 01:51 Clear 57 13.9 41 5 55 55 E 6 9 29.75 1007 10 16.0934 N/A
2:51 am 02:51 Clear 58 14.4 40 4.4 51 51 ESE 9 15 29.75 1007 10 16.0934 N/A
3:51 am 03:51 Clear 57 13.9 40 4.4 53 53 E 9 15 29.75 1007 10 16.0934 N/A
4:51 am 04:51 Clear 60 15.6 40 4.4 47 47 ESE 10 17 29.74 1007 10 16.0934 N/A
5:51 am 05:51 Clear 60 15.6 40 4.4 47 47 SE 12 19 29.75 1008 10 16.0934 N/A
6:51 am 06:51 Sunny 58 14.4 41 5 53 53 NE 7 11 29.79 1009 10 16.0934 N/A
7:51 am 07:51 Sunny 64 17.8 41 5 43 43 E 10 17 29.81 1010 10 16.0934 N/A
8:51 am 08:51 Sunny 67 19.4 41 5 39 39 E 14 22 29.82 1010 10 16.0934 N/A
9:51 am 09:51 Sunny 72 22.2 42 5.6 34 34 SSE 17 28 29.8 1009 10 16.0934 N/A
10:51 am 10:51 Sunny 74 23.3 39 3.9 28 28 S 18 30 29.78 1008 10 16.0934 N/A
11:51 am 11:51 Sunny 77 25 36 2.2 23 23 S 23 37 29.75 1008 10 16.0934 N/A
12:51 pm 12:51 Sunny 78 25.6 32 undefined 19 19 S 9 15 29.72 1006 10 16.0934 N/A
1:51 pm 13:51 Sunny 79 26.1 31 -0.6 17 17 SSW 18 30 29.68 1005 10 16.0934 N/A
2:51 pm 14:51 Sunny 79 26.1 31 -0.6 17 17 S 21 33 29.66 1005 10 16.0934 N/A
3:51 pm 15:51 Sunny 78 25.6 29 -1.7 16 16 SSW 24 39 29.66 1004 10 16.0934 N/A
4:51 pm 16:51 Sunny 75 23.9 31 -0.6 20 20 SSW 16 26 29.66 1004 10 16.0934 N/A
5:51 pm 17:51 Clear 72 22.2 36 2.2 27 27 SSW 17 28 29.66 1004 10 16.0934 N/A
6:51 pm 18:51 Clear 70 21.1 39 3.9 32 32 S 15 24 29.69 1005 10 16.0934 N/A
7:51 pm 19:51 Clear 69 20.6 39 3.9 33 33 SSW 13 20 29.7 1006 10 16.0934 N/A
8:51 pm 20:51 Clear 68 20 39 3.9 35 35 SSE 8 13 29.69 1006 10 16.0934 N/A
9:51 pm 21:51 Mostly Clear 63 17.2 42 5.6 47 47 N N/A 29.72 1006 10 16.0934 N/A
10:23 pm 22:23 Mostly Cloudy with Nearby Thunderstorms 65 18.3 43 6.1 45 45 W 3 6 29.74 1007 10 16.0934 N/A
10:38 pm 22:38 Cloudy 65 18.3 44 6.7 47 47 VRB 6 9 29.74 1007 10 16.0934 N/A
10:51 pm 22:51 Mostly Cloudy 64 17.8 46 7.8 52 52 WNW 5 7 29.74 1007 10 16.0934 N/A
11:51 pm 23:51 Partly Cloudy 60 15.6 47 8.3 62 62 NNW 5 7 29.72 1006 10 16.0934 N/A

Powered by AerisWeather